keisoku_bi_jifun,keisoku_chi,,,
2018/7/30 13:38,0.1644,,,
2018/7/30 13:39,0.1676,,,
2018/7/30 13:40,0.1651,,,
2018/7/30 13:41,0.1651,,,
2018/7/30 13:42,0.1658,,,
2018/7/30 13:43,0.1655,,,
2018/7/30 13:44,0.1636,,,
2018/7/30 13:45,0.1698,,,
2018/7/30 13:46,0.1662,,,
2018/7/30 13:47,0.1680,,,
2018/7/30 13:48,0.1644,,,
2018/7/30 13:49,0.1593,,,
2018/7/30 13:50,0.1615,,,
2018/7/30 13:51,0.1644,,,
2018/7/30 13:52,0.1622,,,
2018/7/30 13:53,0.1589,,,
2018/7/30 13:54,0.1538,,,
2018/7/30 13:55,0.1553,,,
2018/7/30 13:56,0.1498,,,
2018/7/30 13:57,0.1535,,,
2018/7/30 13:58,0.1531,,,
2018/7/30 13:59,0.1549,,,
2018/7/30 14:00,0.1538,,,
2018/7/30 14:01,0.1498,,,
2018/7/30 14:02,0.1473,,,
2018/7/30 14:03,0.1462,,,
2018/7/30 14:04,0.1549,,,
2018/7/30 14:05,0.1575,,,
2018/7/30 14:06,0.1582,,,
2018/7/30 14:07,0.1607,,,
2018/7/30 14:08,0.1618,,,
2018/7/30 14:09,0.1585,,,
2018/7/30 14:10,0.1564,,,
2018/7/30 14:11,0.1564,,,
2018/7/30 14:12,0.1582,,,
2018/7/30 14:13,0.1604,,,
2018/7/30 14:14,0.1633,,,
2018/7/30 14:15,0.1629,,,
2018/7/30 14:16,0.1611,,,
2018/7/30 14:17,0.1596,,,
2018/7/30 14:18,0.1571,,,
2018/7/30 14:19,0.1560,,,
2018/7/30 14:20,0.1636,,,
2018/7/30 14:21,0.1684,,,
2018/7/30 14:22,0.1724,,,
2018/7/30 14:23,0.1705,,,
2018/7/30 14:24,0.1698,,,
2018/7/30 14:25,0.1651,,,
2018/7/30 14:26,0.1600,,,
2018/7/30 14:27,0.1611,,,
2018/7/30 14:28,0.1665,,,
2018/7/30 14:29,0.1702,,,
2018/7/30 14:30,0.1705,,,
2018/7/30 14:31,0.1658,,,
2018/7/30 14:32,0.1625,,,
2018/7/30 14:33,0.1618,,,
2018/7/30 14:34,0.1593,,,
2018/7/30 14:35,0.1589,,,
2018/7/30 14:36,0.1665,,,
2018/7/30 14:37,0.1662,,,
2018/7/30 14:38,0.1691,,,
2018/7/30 14:39,0.1651,,,
2018/7/30 14:40,0.1607,,,
2018/7/30 14:41,0.1607,,,
2018/7/30 14:42,0.1633,,,
2018/7/30 14:43,0.1615,,,
2018/7/30 14:44,0.1589,,,
2018/7/30 14:45,0.1596,,,
2018/7/30 14:46,0.1578,,,
2018/7/30 14:47,0.1520,,,
2018/7/30 14:48,0.1556,,,
2018/7/30 14:49,0.1542,,,
2018/7/30 14:50,0.1513,,,
2018/7/30 14:51,0.1498,,,
2018/7/30 14:52,0.1509,,,
2018/7/30 14:53,0.1487,,,
2018/7/30 14:54,0.1509,,,
2018/7/30 14:55,0.1516,,,
2018/7/30 14:56,0.1524,,,
2018/7/30 14:57,0.1527,,,
2018/7/30 14:58,0.1516,,,
2018/7/30 14:59,0.1455,,,
2018/7/30 15:00,0.1451,,,
2018/7/30 15:01,0.1480,,,
2018/7/30 15:02,0.1531,,,
2018/7/30 15:03,0.1516,,,
2018/7/30 15:04,0.1520,,,
2018/7/30 15:05,0.1516,,,
2018/7/30 15:06,0.1516,,,
2018/7/30 15:07,0.1498,,,
2018/7/30 15:08,0.1524,,,
2018/7/30 15:09,0.1553,,,
2018/7/30 15:10,0.1607,,,
2018/7/30 15:11,0.1633,,,
2018/7/30 15:12,0.1618,,,
2018/7/30 15:13,0.1662,,,
2018/7/30 15:14,0.1669,,,
2018/7/30 15:15,0.1655,,,
2018/7/30 15:16,0.1625,,,
2018/7/30 15:17,0.1622,,,
2018/7/30 15:18,0.1647,,,
2018/7/30 15:19,0.1622,,,
2018/7/30 15:20,0.1596,,,
2018/7/30 15:21,0.1600,,,
2018/7/30 15:22,0.1585,,,
2018/7/30 15:23,0.1611,,,
2018/7/30 15:24,0.1556,,,
2018/7/30 15:25,0.1564,,,
2018/7/30 15:26,0.1556,,,
2018/7/30 15:27,0.1567,,,
2018/7/30 15:28,0.1604,,,
2018/7/30 15:29,0.1585,,,
2018/7/30 15:30,0.1600,,,
2018/7/30 15:31,0.1604,,,
2018/7/30 15:32,0.1582,,,
2018/7/30 15:33,0.1545,,,
2018/7/30 15:34,0.1538,,,
2018/7/30 15:35,0.1527,,,
2018/7/30 15:36,0.1502,,,
2018/7/30 15:37,0.1520,,,
2018/7/30 15:38,0.1520,,,
2018/7/30 15:39,0.1495,,,
2018/7/30 15:40,0.1502,,,
2018/7/30 15:41,0.1527,,,
2018/7/30 15:42,0.1524,,,
2018/7/30 15:43,0.1527,,,
2018/7/30 15:44,0.1535,,,
2018/7/30 15:45,0.1538,,,
2018/7/30 15:46,0.1542,,,
2018/7/30 15:47,0.1578,,,
2018/7/30 15:48,0.1585,,,
2018/7/30 15:49,0.1615,,,
2018/7/30 15:50,0.1611,,,
2018/7/30 15:51,0.1633,,,
2018/7/30 15:52,0.1618,,,
2018/7/30 15:53,0.1640,,,
2018/7/30 15:54,0.1636,,,
2018/7/30 15:55,0.1647,,,
2018/7/30 15:56,0.1676,,,
2018/7/30 15:57,0.1644,,,
2018/7/30 15:58,0.1615,,,
2018/7/30 15:59,0.1596,,,
2018/7/30 16:00,0.1633,,,
2018/7/30 16:01,0.1636,,,
2018/7/30 16:02,0.1615,,,
2018/7/30 16:03,0.1615,,,
2018/7/30 16:04,0.1593,,,
2018/7/30 16:05,0.1629,,,
2018/7/30 16:06,0.1640,,,
2018/7/30 16:07,0.1607,,,
2018/7/30 16:08,0.1644,,,
2018/7/30 16:09,0.1655,,,
2018/7/30 16:10,0.1669,,,
2018/7/30 16:11,0.1651,,,
2018/7/30 16:12,0.1607,,,
2018/7/30 16:13,0.1647,,,
2018/7/30 16:14,0.1611,,,
2018/7/30 16:15,0.1644,,,
2018/7/30 16:16,0.1615,,,
2018/7/30 16:17,0.1564,,,
2018/7/30 16:18,0.1553,,,
2018/7/30 16:19,0.1545,,,
2018/7/30 16:20,0.1531,,,
2018/7/30 16:21,0.1527,,,
2018/7/30 16:22,0.1455,,,
2018/7/30 16:23,0.1476,,,
2018/7/30 16:24,0.1444,,,
2018/7/30 16:25,0.1480,,,
2018/7/30 16:26,0.1440,,,
2018/7/30 16:27,0.1462,,,
2018/7/30 16:28,0.1545,,,
2018/7/30 16:29,0.1585,,,
2018/7/30 16:30,0.1571,,,
2018/7/30 16:31,0.1615,,,
2018/7/30 16:32,0.1607,,,
2018/7/30 16:33,0.1662,,,
2018/7/30 16:34,0.1658,,,
2018/7/30 16:35,0.1651,,,
2018/7/30 16:36,0.1673,,,
2018/7/30 16:37,0.1698,,,
2018/7/30 16:38,0.1680,,,
2018/7/30 16:39,0.1665,,,
2018/7/30 16:40,0.1618,,,
2018/7/30 16:41,0.1618,,,
2018/7/30 16:42,0.1600,,,
2018/7/30 16:43,0.1611,,,
2018/7/30 16:44,0.1564,,,
2018/7/30 16:45,0.1575,,,
2018/7/30 16:46,0.1596,,,
2018/7/30 16:47,0.1560,,,
2018/7/30 16:48,0.1553,,,
2018/7/30 16:49,0.1505,,,
2018/7/30 16:50,0.1476,,,
2018/7/30 16:51,0.1502,,,
2018/7/30 16:52,0.1542,,,
2018/7/30 16:53,0.1520,,,
2018/7/30 16:54,0.1535,,,
2018/7/30 16:55,0.1611,,,
2018/7/30 16:56,0.1625,,,
2018/7/30 16:57,0.1560,,,
2018/7/30 16:58,0.1527,,,
2018/7/30 16:59,0.1524,,,
2018/7/30 17:00,0.1538,,,
2018/7/30 17:01,0.1567,,,
2018/7/30 17:02,0.1567,,,
2018/7/30 17:03,0.1535,,,
2018/7/30 17:04,0.1531,,,
2018/7/30 17:05,0.1505,,,
2018/7/30 17:06,0.1473,,,
2018/7/30 17:07,0.1455,,,
2018/7/30 17:08,0.1527,,,
2018/7/30 17:09,0.1589,,,
2018/7/30 17:10,0.1575,,,
2018/7/30 17:11,0.1611,,,
2018/7/30 17:12,0.1593,,,
2018/7/30 17:13,0.1575,,,
2018/7/30 17:14,0.1600,,,
2018/7/30 17:15,0.1589,,,
2018/7/30 17:16,0.1607,,,
2018/7/30 17:17,0.1582,,,
2018/7/30 17:18,0.1604,,,
2018/7/30 17:19,0.1571,,,
2018/7/30 17:20,0.1571,,,
2018/7/30 17:21,0.1607,,,
2018/7/30 17:22,0.1589,,,
2018/7/30 17:23,0.1567,,,
2018/7/30 17:24,0.1582,,,
2018/7/30 17:25,0.1545,,,
2018/7/30 17:26,0.1564,,,
2018/7/30 17:27,0.1524,,,
2018/7/30 17:28,0.1524,,,
2018/7/30 17:29,0.1509,,,
2018/7/30 17:30,0.1571,,,
2018/7/30 17:31,0.1535,,,
2018/7/30 17:32,0.1469,,,
2018/7/30 17:33,0.1487,,,
2018/7/30 17:34,0.1505,,,
2018/7/30 17:35,0.1527,,,
2018/7/30 17:36,0.1625,,,
2018/7/30 17:37,0.1593,,,
2018/7/30 17:38,0.1607,,,
2018/7/30 17:39,0.1640,,,
2018/7/30 17:40,0.1633,,,
2018/7/30 17:41,0.1578,,,
2018/7/30 17:42,0.1578,,,
2018/7/30 17:43,0.1640,,,
2018/7/30 17:44,0.1604,,,
2018/7/30 17:45,0.1567,,,
2018/7/30 17:46,0.1527,,,
2018/7/30 17:47,0.1487,,,
2018/7/30 17:48,0.1495,,,
2018/7/30 17:49,0.1524,,,
2018/7/30 17:50,0.1524,,,
2018/7/30 17:51,0.1545,,,
2018/7/30 17:52,0.1524,,,
2018/7/30 17:53,0.1535,,,
2018/7/30 17:54,0.1520,,,
2018/7/30 17:55,0.1524,,,
2018/7/30 17:56,0.1593,,,
2018/7/30 17:57,0.1593,,,
2018/7/30 17:58,0.1575,,,
2018/7/30 17:59,0.1633,,,
2018/7/30 18:00,0.1658,,,
2018/7/30 18:01,0.1669,,,
2018/7/30 18:02,0.1698,,,
2018/7/30 18:03,0.1713,,,
2018/7/30 18:04,0.1745,,,
2018/7/30 18:05,0.1735,,,
2018/7/30 18:06,0.1720,,,
2018/7/30 18:07,0.1680,,,
2018/7/30 18:08,0.1742,,,
2018/7/30 18:09,0.1702,,,
2018/7/30 18:10,0.1724,,,
2018/7/30 18:11,0.1687,,,
2018/7/30 18:12,0.1658,,,
2018/7/30 18:13,0.1596,,,
2018/7/30 18:14,0.1585,,,
2018/7/30 18:15,0.1549,,,
2018/7/30 18:16,0.1571,,,
2018/7/30 18:17,0.1604,,,
2018/7/30 18:18,0.1600,,,
2018/7/30 18:19,0.1538,,,
2018/7/30 18:20,0.1578,,,
2018/7/30 18:21,0.1516,,,
2018/7/30 18:22,0.1542,,,
2018/7/30 18:23,0.1567,,,
2018/7/30 18:24,0.1575,,,
2018/7/30 18:25,0.1585,,,
2018/7/30 18:26,0.1600,,,
2018/7/30 18:27,0.1625,,,
2018/7/30 18:28,0.1604,,,
2018/7/30 18:29,0.1625,,,
2018/7/30 18:30,0.1644,,,
2018/7/30 18:31,0.1651,,,
2018/7/30 18:32,0.1662,,,
2018/7/30 18:33,0.1651,,,
2018/7/30 18:34,0.1655,,,
2018/7/30 18:35,0.1665,,,
2018/7/30 18:36,0.1698,,,
2018/7/30 18:37,0.1698,,,
2018/7/30 18:38,0.1651,,,
2018/7/30 18:39,0.1709,,,
2018/7/30 18:40,0.1727,,,
2018/7/30 18:41,0.1745,,,
2018/7/30 18:42,0.1731,,,
2018/7/30 18:43,0.1720,,,
2018/7/30 18:44,0.1691,,,
2018/7/30 18:45,0.1676,,,
2018/7/30 18:46,0.1676,,,
2018/7/30 18:47,0.1687,,,
2018/7/30 18:48,0.1647,,,
2018/7/30 18:49,0.1658,,,
2018/7/30 18:50,0.1611,,,
2018/7/30 18:51,0.1582,,,
2018/7/30 18:52,0.1600,,,
2018/7/30 18:53,0.1589,,,
2018/7/30 18:54,0.1640,,,
2018/7/30 18:55,0.1676,,,
2018/7/30 18:56,0.1622,,,
2018/7/30 18:57,0.1655,,,
2018/7/30 18:58,0.1615,,,
2018/7/30 18:59,0.1658,,,
2018/7/30 19:00,0.1673,,,
2018/7/30 19:01,0.1655,,,
2018/7/30 19:02,0.1647,,,
2018/7/30 19:03,0.1564,,,
2018/7/30 19:04,0.1567,,,
2018/7/30 19:05,0.1560,,,
2018/7/30 19:06,0.1535,,,
2018/7/30 19:07,0.1640,,,
2018/7/30 19:08,0.1600,,,
2018/7/30 19:09,0.1622,,,
2018/7/30 19:10,0.1662,,,
2018/7/30 19:11,0.1618,,,
2018/7/30 19:12,0.1651,,,
2018/7/30 19:13,0.1695,,,
2018/7/30 19:14,0.1727,,,
2018/7/30 19:15,0.1724,,,
2018/7/30 19:16,0.1680,,,
2018/7/30 19:17,0.1698,,,
2018/7/30 19:18,0.1636,,,
2018/7/30 19:19,0.1665,,,
2018/7/30 19:20,0.1615,,,
2018/7/30 19:21,0.1560,,,
2018/7/30 19:22,0.1582,,,
2018/7/30 19:23,0.1578,,,
2018/7/30 19:24,0.1564,,,
2018/7/30 19:25,0.1553,,,
2018/7/30 19:26,0.1538,,,
2018/7/30 19:27,0.1538,,,
2018/7/30 19:28,0.1527,,,
2018/7/30 19:29,0.1527,,,
2018/7/30 19:30,0.1535,,,
2018/7/30 19:31,0.1542,,,
2018/7/30 19:32,0.1575,,,
2018/7/30 19:33,0.1549,,,
2018/7/30 19:34,0.1556,,,
2018/7/30 19:35,0.1498,,,
2018/7/30 19:36,0.1535,,,
2018/7/30 19:37,0.1505,,,
2018/7/30 19:38,0.1516,,,
2018/7/30 19:39,0.1549,,,
2018/7/30 19:40,0.1575,,,
2018/7/30 19:41,0.1549,,,
2018/7/30 19:42,0.1622,,,
2018/7/30 19:43,0.1593,,,
2018/7/30 19:44,0.1618,,,
2018/7/30 19:45,0.1600,,,
2018/7/30 19:46,0.1647,,,
2018/7/30 19:47,0.1658,,,
2018/7/30 19:48,0.1753,,,
2018/7/30 19:49,0.1756,,,
2018/7/30 19:50,0.1720,,,
2018/7/30 19:51,0.1724,,,
2018/7/30 19:52,0.1724,,,
2018/7/30 19:53,0.1662,,,
2018/7/30 19:54,0.1651,,,
2018/7/30 19:55,0.1651,,,
2018/7/30 19:56,0.1669,,,
2018/7/30 19:57,0.1640,,,
2018/7/30 19:58,0.1622,,,
2018/7/30 19:59,0.1625,,,
2018/7/30 20:00,0.1567,,,
2018/7/30 20:01,0.1549,,,
2018/7/30 20:02,0.1498,,,
2018/7/30 20:03,0.1535,,,
2018/7/30 20:04,0.1560,,,
2018/7/30 20:05,0.1549,,,
2018/7/30 20:06,0.1575,,,
2018/7/30 20:07,0.1575,,,
2018/7/30 20:08,0.1575,,,
2018/7/30 20:09,0.1560,,,
2018/7/30 20:10,0.1509,,,
2018/7/30 20:11,0.1567,,,
2018/7/30 20:12,0.1549,,,
2018/7/30 20:13,0.1585,,,
2018/7/30 20:14,0.1542,,,
2018/7/30 20:15,0.1502,,,
2018/7/30 20:16,0.1491,,,
2018/7/30 20:17,0.1444,,,
2018/7/30 20:18,0.1429,,,
2018/7/30 20:19,0.1491,,,
2018/7/30 20:20,0.1487,,,
2018/7/30 20:21,0.1476,,,
2018/7/30 20:22,0.1444,,,
2018/7/30 20:23,0.1455,,,
2018/7/30 20:24,0.1484,,,
2018/7/30 20:25,0.1538,,,
2018/7/30 20:26,0.1545,,,
2018/7/30 20:27,0.1549,,,
2018/7/30 20:28,0.1582,,,
2018/7/30 20:29,0.1560,,,
2018/7/30 20:30,0.1484,,,
2018/7/30 20:31,0.1524,,,
2018/7/30 20:32,0.1553,,,
2018/7/30 20:33,0.1611,,,
2018/7/30 20:34,0.1658,,,
2018/7/30 20:35,0.1611,,,
2018/7/30 20:36,0.1567,,,
2018/7/30 20:37,0.1578,,,
2018/7/30 20:38,0.1633,,,
2018/7/30 20:39,0.1622,,,
2018/7/30 20:40,0.1644,,,
2018/7/30 20:41,0.1680,,,
2018/7/30 20:42,0.1662,,,
2018/7/30 20:43,0.1622,,,
2018/7/30 20:44,0.1596,,,
2018/7/30 20:45,0.1556,,,
2018/7/30 20:46,0.1524,,,
2018/7/30 20:47,0.1545,,,
2018/7/30 20:48,0.1575,,,
2018/7/30 20:49,0.1549,,,
2018/7/30 20:50,0.1578,,,
2018/7/30 20:51,0.1615,,,
2018/7/30 20:52,0.1585,,,
2018/7/30 20:53,0.1509,,,
2018/7/30 20:54,0.1553,,,
2018/7/30 20:55,0.1564,,,
2018/7/30 20:56,0.1542,,,
2018/7/30 20:57,0.1607,,,
2018/7/30 20:58,0.1578,,,
2018/7/30 20:59,0.1553,,,
2018/7/30 21:00,0.1589,,,
2018/7/30 21:01,0.1549,,,
2018/7/30 21:02,0.1520,,,
2018/7/30 21:03,0.1524,,,
2018/7/30 21:04,0.1527,,,
2018/7/30 21:05,0.1520,,,
2018/7/30 21:06,0.1502,,,
2018/7/30 21:07,0.1560,,,
2018/7/30 21:08,0.1505,,,
2018/7/30 21:09,0.1513,,,
2018/7/30 21:10,0.1531,,,
2018/7/30 21:11,0.1513,,,
2018/7/30 21:12,0.1553,,,
2018/7/30 21:13,0.1516,,,
2018/7/30 21:14,0.1484,,,
2018/7/30 21:15,0.1611,,,
2018/7/30 21:16,0.1618,,,
2018/7/30 21:17,0.1618,,,
2018/7/30 21:18,0.1589,,,
2018/7/30 21:19,0.1622,,,
2018/7/30 21:20,0.1669,,,
2018/7/30 21:21,0.1651,,,
2018/7/30 21:22,0.1633,,,
2018/7/30 21:23,0.1625,,,
2018/7/30 21:24,0.1676,,,
2018/7/30 21:25,0.1724,,,
2018/7/30 21:26,0.1687,,,
2018/7/30 21:27,0.1680,,,
2018/7/30 21:28,0.1651,,,
2018/7/30 21:29,0.1665,,,
2018/7/30 21:30,0.1680,,,
2018/7/30 21:31,0.1640,,,
2018/7/30 21:32,0.1669,,,
2018/7/30 21:33,0.1673,,,
2018/7/30 21:34,0.1665,,,
2018/7/30 21:35,0.1644,,,
2018/7/30 21:36,0.1629,,,
2018/7/30 21:37,0.1589,,,
2018/7/30 21:38,0.1604,,,
2018/7/30 21:39,0.1636,,,
2018/7/30 21:40,0.1647,,,
2018/7/30 21:41,0.1633,,,
2018/7/30 21:42,0.1622,,,
2018/7/30 21:43,0.1571,,,
2018/7/30 21:44,0.1567,,,
2018/7/30 21:45,0.1578,,,
2018/7/30 21:46,0.1600,,,
2018/7/30 21:47,0.1625,,,
2018/7/30 21:48,0.1629,,,
2018/7/30 21:49,0.1585,,,
2018/7/30 21:50,0.1618,,,
2018/7/30 21:51,0.1633,,,
2018/7/30 21:52,0.1651,,,
2018/7/30 21:53,0.1669,,,
2018/7/30 21:54,0.1705,,,
2018/7/30 21:55,0.1756,,,
2018/7/30 21:56,0.1738,,,
2018/7/30 21:57,0.1735,,,
2018/7/30 21:58,0.1727,,,
2018/7/30 21:59,0.1745,,,
2018/7/30 22:00,0.1749,,,
2018/7/30 22:01,0.1745,,,
2018/7/30 22:02,0.1713,,,
2018/7/30 22:03,0.1691,,,
2018/7/30 22:04,0.1669,,,
2018/7/30 22:05,0.1680,,,
2018/7/30 22:06,0.1644,,,
2018/7/30 22:07,0.1658,,,
2018/7/30 22:08,0.1644,,,
2018/7/30 22:09,0.1647,,,
2018/7/30 22:10,0.1633,,,
2018/7/30 22:11,0.1680,,,
2018/7/30 22:12,0.1640,,,
2018/7/30 22:13,0.1647,,,
2018/7/30 22:14,0.1629,,,
2018/7/30 22:15,0.1589,,,
2018/7/30 22:16,0.1571,,,
2018/7/30 22:17,0.1564,,,
2018/7/30 22:18,0.1542,,,
2018/7/30 22:19,0.1575,,,
2018/7/30 22:20,0.1575,,,
2018/7/30 22:21,0.1582,,,
2018/7/30 22:22,0.1513,,,
2018/7/30 22:23,0.1498,,,
2018/7/30 22:24,0.1469,,,
2018/7/30 22:25,0.1447,,,
2018/7/30 22:26,0.1505,,,
2018/7/30 22:27,0.1531,,,
2018/7/30 22:28,0.1520,,,
2018/7/30 22:29,0.1502,,,
2018/7/30 22:30,0.1498,,,
2018/7/30 22:31,0.1491,,,
2018/7/30 22:32,0.1498,,,
2018/7/30 22:33,0.1505,,,
2018/7/30 22:34,0.1582,,,
2018/7/30 22:35,0.1604,,,
2018/7/30 22:36,0.1622,,,
2018/7/30 22:37,0.1636,,,
2018/7/30 22:38,0.1618,,,
2018/7/30 22:39,0.1655,,,
2018/7/30 22:40,0.1673,,,
2018/7/30 22:41,0.1640,,,
2018/7/30 22:42,0.1607,,,
2018/7/30 22:43,0.1556,,,
2018/7/30 22:44,0.1571,,,
2018/7/30 22:45,0.1516,,,
2018/7/30 22:46,0.1487,,,
2018/7/30 22:47,0.1535,,,
2018/7/30 22:48,0.1509,,,
2018/7/30 22:49,0.1462,,,
2018/7/30 22:50,0.1418,,,
2018/7/30 22:51,0.1440,,,
2018/7/30 22:52,0.1411,,,
2018/7/30 22:53,0.1440,,,
2018/7/30 22:54,0.1465,,,
2018/7/30 22:55,0.1516,,,
2018/7/30 22:56,0.1465,,,
2018/7/30 22:57,0.1491,,,
2018/7/30 22:58,0.1502,,,
2018/7/30 22:59,0.1451,,,
2018/7/30 23:00,0.1513,,,
2018/7/30 23:01,0.1585,,,
2018/7/30 23:02,0.1564,,,
2018/7/30 23:03,0.1604,,,
2018/7/30 23:04,0.1669,,,
2018/7/30 23:05,0.1673,,,
2018/7/30 23:06,0.1655,,,
2018/7/30 23:07,0.1731,,,
2018/7/30 23:08,0.1720,,,
2018/7/30 23:09,0.1669,,,
2018/7/30 23:10,0.1713,,,
2018/7/30 23:11,0.1687,,,
2018/7/30 23:12,0.1636,,,
2018/7/30 23:13,0.1636,,,
2018/7/30 23:14,0.1691,,,
2018/7/30 23:15,0.1636,,,
2018/7/30 23:16,0.1662,,,
2018/7/30 23:17,0.1622,,,
2018/7/30 23:18,0.1615,,,
2018/7/30 23:19,0.1647,,,
2018/7/30 23:20,0.1680,,,
2018/7/30 23:21,0.1716,,,
2018/7/30 23:22,0.1731,,,
2018/7/30 23:23,0.1735,,,
2018/7/30 23:24,0.1720,,,
2018/7/30 23:25,0.1665,,,
2018/7/30 23:26,0.1651,,,
2018/7/30 23:27,0.1633,,,
2018/7/30 23:28,0.1669,,,
2018/7/30 23:29,0.1647,,,
2018/7/30 23:30,0.1615,,,
2018/7/30 23:31,0.1622,,,
2018/7/30 23:32,0.1578,,,
2018/7/30 23:33,0.1567,,,
2018/7/30 23:34,0.1560,,,
2018/7/30 23:35,0.1593,,,
2018/7/30 23:36,0.1593,,,
2018/7/30 23:37,0.1615,,,
2018/7/30 23:38,0.1600,,,
2018/7/30 23:39,0.1593,,,
2018/7/30 23:40,0.1615,,,
2018/7/30 23:41,0.1629,,,
2018/7/30 23:42,0.1578,,,
2018/7/30 23:43,0.1596,,,
2018/7/30 23:44,0.1567,,,
2018/7/30 23:45,0.1553,,,
2018/7/30 23:46,0.1553,,,
2018/7/30 23:47,0.1535,,,
2018/7/30 23:48,0.1538,,,
2018/7/30 23:49,0.1527,,,
2018/7/30 23:50,0.1535,,,
2018/7/30 23:51,0.1516,,,
2018/7/30 23:52,0.1524,,,
2018/7/30 23:53,0.1560,,,
2018/7/30 23:54,0.1596,,,
2018/7/30 23:55,0.1604,,,
2018/7/30 23:56,0.1611,,,
2018/7/30 23:57,0.1553,,,
2018/7/30 23:58,0.1556,,,
2018/7/30 23:59,0.1535,,,
2018/7/31 0:00,0.1575,,,
2018/7/31 0:01,0.1527,,,
2018/7/31 0:02,0.1502,,,
2018/7/31 0:03,0.1491,,,
2018/7/31 0:04,0.1462,,,
2018/7/31 0:05,0.1400,,,
2018/7/31 0:06,0.1404,,,
2018/7/31 0:07,0.1436,,,
2018/7/31 0:08,0.1473,,,
2018/7/31 0:09,0.1473,,,
2018/7/31 0:10,0.1487,,,
2018/7/31 0:11,0.1465,,,
2018/7/31 0:12,0.1513,,,
2018/7/31 0:13,0.1549,,,
2018/7/31 0:14,0.1545,,,
2018/7/31 0:15,0.1549,,,
2018/7/31 0:16,0.1549,,,
2018/7/31 0:17,0.1596,,,
2018/7/31 0:18,0.1575,,,
2018/7/31 0:19,0.1578,,,
2018/7/31 0:20,0.1556,,,
2018/7/31 0:21,0.1571,,,
2018/7/31 0:22,0.1604,,,
2018/7/31 0:23,0.1582,,,
2018/7/31 0:24,0.1575,,,
2018/7/31 0:25,0.1582,,,
2018/7/31 0:26,0.1567,,,
2018/7/31 0:27,0.1556,,,
2018/7/31 0:28,0.1531,,,
2018/7/31 0:29,0.1505,,,
2018/7/31 0:30,0.1505,,,
2018/7/31 0:31,0.1498,,,
2018/7/31 0:32,0.1505,,,
2018/7/31 0:33,0.1491,,,
2018/7/31 0:34,0.1465,,,
2018/7/31 0:35,0.1451,,,
2018/7/31 0:36,0.1433,,,
2018/7/31 0:37,0.1440,,,
2018/7/31 0:38,0.1491,,,
2018/7/31 0:39,0.1455,,,
2018/7/31 0:40,0.1455,,,
2018/7/31 0:41,0.1425,,,
2018/7/31 0:42,0.1465,,,
2018/7/31 0:43,0.1425,,,
2018/7/31 0:44,0.1415,,,
2018/7/31 0:45,0.1465,,,
2018/7/31 0:46,0.1447,,,
2018/7/31 0:47,0.1447,,,
2018/7/31 0:48,0.1487,,,
2018/7/31 0:49,0.1462,,,
2018/7/31 0:50,0.1505,,,
2018/7/31 0:51,0.1505,,,
2018/7/31 0:52,0.1585,,,
2018/7/31 0:53,0.1604,,,
2018/7/31 0:54,0.1625,,,
2018/7/31 0:55,0.1625,,,
2018/7/31 0:56,0.1585,,,
2018/7/31 0:57,0.1611,,,
2018/7/31 0:58,0.1640,,,
2018/7/31 0:59,0.1618,,,
2018/7/31 1:00,0.1622,,,
2018/7/31 1:01,0.1600,,,
2018/7/31 1:02,0.1651,,,
2018/7/31 1:03,0.1651,,,
2018/7/31 1:04,0.1629,,,
2018/7/31 1:05,0.1607,,,
2018/7/31 1:06,0.1600,,,
2018/7/31 1:07,0.1607,,,
2018/7/31 1:08,0.1625,,,
2018/7/31 1:09,0.1582,,,
2018/7/31 1:10,0.1640,,,
2018/7/31 1:11,0.1647,,,
2018/7/31 1:12,0.1687,,,
2018/7/31 1:13,0.1662,,,
2018/7/31 1:14,0.1582,,,
2018/7/31 1:15,0.1571,,,
2018/7/31 1:16,0.1589,,,
2018/7/31 1:17,0.1622,,,
2018/7/31 1:18,0.1640,,,
2018/7/31 1:19,0.1633,,,
2018/7/31 1:20,0.1662,,,
2018/7/31 1:21,0.1633,,,
2018/7/31 1:22,0.1647,,,
2018/7/31 1:23,0.1622,,,
2018/7/31 1:24,0.1604,,,
2018/7/31 1:25,0.1669,,,
2018/7/31 1:26,0.1709,,,
2018/7/31 1:27,0.1720,,,
2018/7/31 1:28,0.1705,,,
2018/7/31 1:29,0.1702,,,
2018/7/31 1:30,0.1676,,,
2018/7/31 1:31,0.1702,,,
2018/7/31 1:32,0.1695,,,
2018/7/31 1:33,0.1658,,,
2018/7/31 1:34,0.1673,,,
2018/7/31 1:35,0.1687,,,
2018/7/31 1:36,0.1687,,,
2018/7/31 1:37,0.1636,,,
2018/7/31 1:38,0.1604,,,
2018/7/31 1:39,0.1618,,,
2018/7/31 1:40,0.1589,,,
2018/7/31 1:41,0.1607,,,
2018/7/31 1:42,0.1611,,,
2018/7/31 1:43,0.1542,,,
2018/7/31 1:44,0.1585,,,
2018/7/31 1:45,0.1535,,,
2018/7/31 1:46,0.1527,,,
2018/7/31 1:47,0.1473,,,
2018/7/31 1:48,0.1527,,,
2018/7/31 1:49,0.1560,,,
2018/7/31 1:50,0.1502,,,
2018/7/31 1:51,0.1484,,,
2018/7/31 1:52,0.1476,,,
2018/7/31 1:53,0.1440,,,
2018/7/31 1:54,0.1495,,,
2018/7/31 1:55,0.1476,,,
2018/7/31 1:56,0.1505,,,
2018/7/31 1:57,0.1509,,,
2018/7/31 1:58,0.1502,,,
2018/7/31 1:59,0.1502,,,
2018/7/31 2:00,0.1458,,,
2018/7/31 2:01,0.1549,,,
2018/7/31 2:02,0.1615,,,
2018/7/31 2:03,0.1655,,,
2018/7/31 2:04,0.1695,,,
2018/7/31 2:05,0.1684,,,
2018/7/31 2:06,0.1691,,,
2018/7/31 2:07,0.1669,,,
2018/7/31 2:08,0.1651,,,
2018/7/31 2:09,0.1684,,,
2018/7/31 2:10,0.1644,,,
2018/7/31 2:11,0.1658,,,
2018/7/31 2:12,0.1564,,,
2018/7/31 2:13,0.1549,,,
2018/7/31 2:14,0.1505,,,
2018/7/31 2:15,0.1487,,,
2018/7/31 2:16,0.1505,,,
2018/7/31 2:17,0.1513,,,
2018/7/31 2:18,0.1520,,,
2018/7/31 2:19,0.1585,,,
2018/7/31 2:20,0.1582,,,
2018/7/31 2:21,0.1575,,,
2018/7/31 2:22,0.1589,,,
2018/7/31 2:23,0.1622,,,
2018/7/31 2:24,0.1625,,,
2018/7/31 2:25,0.1673,,,
2018/7/31 2:26,0.1684,,,
2018/7/31 2:27,0.1629,,,
2018/7/31 2:28,0.1651,,,
2018/7/31 2:29,0.1684,,,
2018/7/31 2:30,0.1684,,,
2018/7/31 2:31,0.1673,,,
2018/7/31 2:32,0.1698,,,
2018/7/31 2:33,0.1680,,,
2018/7/31 2:34,0.1658,,,
2018/7/31 2:35,0.1611,,,
2018/7/31 2:36,0.1604,,,
2018/7/31 2:37,0.1549,,,
2018/7/31 2:38,0.1582,,,
2018/7/31 2:39,0.1549,,,
2018/7/31 2:40,0.1535,,,
2018/7/31 2:41,0.1495,,,
2018/7/31 2:42,0.1487,,,
2018/7/31 2:43,0.1509,,,
2018/7/31 2:44,0.1556,,,
2018/7/31 2:45,0.1618,,,
2018/7/31 2:46,0.1676,,,
2018/7/31 2:47,0.1658,,,
2018/7/31 2:48,0.1698,,,
2018/7/31 2:49,0.1738,,,
2018/7/31 2:50,0.1724,,,
2018/7/31 2:51,0.1709,,,
2018/7/31 2:52,0.1702,,,
2018/7/31 2:53,0.1724,,,
2018/7/31 2:54,0.1695,,,
2018/7/31 2:55,0.1647,,,
2018/7/31 2:56,0.1636,,,
2018/7/31 2:57,0.1611,,,
2018/7/31 2:58,0.1604,,,
2018/7/31 2:59,0.1582,,,
2018/7/31 3:00,0.1538,,,
2018/7/31 3:01,0.1535,,,
2018/7/31 3:02,0.1549,,,
2018/7/31 3:03,0.1545,,,
2018/7/31 3:04,0.1542,,,
2018/7/31 3:05,0.1560,,,
2018/7/31 3:06,0.1582,,,
2018/7/31 3:07,0.1596,,,
2018/7/31 3:08,0.1651,,,
2018/7/31 3:09,0.1607,,,
2018/7/31 3:10,0.1615,,,
2018/7/31 3:11,0.1604,,,
2018/7/31 3:12,0.1615,,,
2018/7/31 3:13,0.1655,,,
2018/7/31 3:14,0.1680,,,
2018/7/31 3:15,0.1640,,,
2018/7/31 3:16,0.1604,,,
2018/7/31 3:17,0.1589,,,
2018/7/31 3:18,0.1596,,,
2018/7/31 3:19,0.1575,,,
2018/7/31 3:20,0.1600,,,
2018/7/31 3:21,0.1622,,,
2018/7/31 3:22,0.1640,,,
2018/7/31 3:23,0.1687,,,
2018/7/31 3:24,0.1636,,,
2018/7/31 3:25,0.1658,,,
2018/7/31 3:26,0.1727,,,
2018/7/31 3:27,0.1735,,,
2018/7/31 3:28,0.1756,,,
2018/7/31 3:29,0.1687,,,
2018/7/31 3:30,0.1662,,,
2018/7/31 3:31,0.1691,,,
2018/7/31 3:32,0.1669,,,
2018/7/31 3:33,0.1705,,,
2018/7/31 3:34,0.1658,,,
2018/7/31 3:35,0.1647,,,
2018/7/31 3:36,0.1582,,,
2018/7/31 3:37,0.1560,,,
2018/7/31 3:38,0.1604,,,
2018/7/31 3:39,0.1600,,,
2018/7/31 3:40,0.1622,,,
2018/7/31 3:41,0.1564,,,
2018/7/31 3:42,0.1560,,,
2018/7/31 3:43,0.1622,,,
2018/7/31 3:44,0.1567,,,
2018/7/31 3:45,0.1633,,,
2018/7/31 3:46,0.1629,,,
2018/7/31 3:47,0.1644,,,
2018/7/31 3:48,0.1618,,,
2018/7/31 3:49,0.1596,,,
2018/7/31 3:50,0.1567,,,
2018/7/31 3:51,0.1545,,,
2018/7/31 3:52,0.1596,,,
2018/7/31 3:53,0.1658,,,
2018/7/31 3:54,0.1604,,,
2018/7/31 3:55,0.1618,,,
2018/7/31 3:56,0.1520,,,
2018/7/31 3:57,0.1560,,,
2018/7/31 3:58,0.1604,,,
2018/7/31 3:59,0.1640,,,
2018/7/31 4:00,0.1629,,,
2018/7/31 4:01,0.1687,,,
2018/7/31 4:02,0.1713,,,
2018/7/31 4:03,0.1713,,,
2018/7/31 4:04,0.1636,,,
2018/7/31 4:05,0.1640,,,
2018/7/31 4:06,0.1636,,,
2018/7/31 4:07,0.1665,,,
2018/7/31 4:08,0.1629,,,
2018/7/31 4:09,0.1596,,,
2018/7/31 4:10,0.1564,,,
2018/7/31 4:11,0.1549,,,
2018/7/31 4:12,0.1491,,,
2018/7/31 4:13,0.1524,,,
2018/7/31 4:14,0.1520,,,
2018/7/31 4:15,0.1527,,,
2018/7/31 4:16,0.1502,,,
2018/7/31 4:17,0.1509,,,
2018/7/31 4:18,0.1509,,,
2018/7/31 4:19,0.1549,,,
2018/7/31 4:20,0.1542,,,
2018/7/31 4:21,0.1553,,,
2018/7/31 4:22,0.1578,,,
2018/7/31 4:23,0.1611,,,
2018/7/31 4:24,0.1596,,,
2018/7/31 4:25,0.1600,,,
2018/7/31 4:26,0.1596,,,
2018/7/31 4:27,0.1560,,,
2018/7/31 4:28,0.1571,,,
2018/7/31 4:29,0.1596,,,
2018/7/31 4:30,0.1564,,,
2018/7/31 4:31,0.1600,,,
2018/7/31 4:32,0.1571,,,
2018/7/31 4:33,0.1564,,,
2018/7/31 4:34,0.1535,,,